This is the latest recevied weather packets stored in our database for station/object OK2ILA-6. If no packets are shown the sender has not sent any weather packets the latest 10 day(s).
| Time | Temp. | Humidity | Pressure | Rain* | Wind** | Luminosity | Snow |
|---|---|---|---|---|---|---|---|
| 1777728003 | 23.33° C | 30% | 1021.3 hPa | - | - | - | - |
| 1777727403 | 22.78° C | 30% | 1021.6 hPa | - | - | - | - |
| 1777726802 | 22.22° C | 32% | 1021.8 hPa | - | - | - | - |
| 1777726203 | 22.78° C | 30% | 1021.9 hPa | - | - | - | - |
| 1777725603 | 22.78° C | 30% | 1021.9 hPa | - | - | - | - |
| 1777725003 | 22.78° C | 31% | 1022.1 hPa | - | - | - | - |
| 1777724403 | 22.78° C | 30% | 1022.2 hPa | - | - | - | - |
| 1777723802 | 22.78° C | 32% | 1022.3 hPa | - | - | - | - |
| 1777723203 | 23.33° C | 32% | 1022.6 hPa | - | - | - | - |
| 1777722603 | 23.33° C | 32% | 1022.6 hPa | - | - | - | - |
| 1777722003 | 23.33° C | 31% | 1022.8 hPa | - | - | - | - |
| 1777721403 | 22.78° C | 33% | 1022.9 hPa | - | - | - | - |
| 1777720802 | 22.78° C | 34% | 1023 hPa | - | - | - | - |
| 1777720208 | 23.33° C | 34% | 1023 hPa | - | - | - | - |
| 1777719603 | 23.33° C | 33% | 1023.2 hPa | - | - | - | - |
| 1777719003 | 22.22° C | 33% | 1023.2 hPa | - | - | - | - |
| 1777718403 | 22.22° C | 32% | 1023.4 hPa | - | - | - | - |
| 1777717802 | 22.22° C | 32% | 1023.7 hPa | - | - | - | - |
| 1777717203 | 22.78° C | 32% | 1023.6 hPa | - | - | - | - |
| 1777716603 | 22.22° C | 35% | 1023.8 hPa | - | - | - | - |
| 1777716003 | 22.22° C | 34% | 1023.8 hPa | - | - | - | - |
| 1777715403 | 22.22° C | 34% | 1024 hPa | - | - | - | - |
| 1777714802 | 22.22° C | 36% | 1023.8 hPa | - | - | - | - |
| 1777714203 | 22.22° C | 36% | 1024.1 hPa | - | - | - | - |
| 1777713603 | 22.22° C | 38% | 1024.2 hPa | - | - | - | - |
* Rain since midnight (hover to see other rain measurements)
** Current wind speed in m/s (hover to see current wind gust speed)